Norfolk, NE

12:01 PM CST on December 05, 2019 (GMT -0600)
Stefan Memorial

Weather History for KOFK - October, 2019

Change the Weather History Date:

Thursday, October 17, 2019

  Actual Average Record
Temperature  
Mean Temperature 52 °F 51 °F  
Max Temperature 70 °F 63 °F 89 °F (1961)
Min Temperature 33 °F 38 °F 16 °F (1922)
Degree Days  
Heating Degree Days 13 14  
Month to date heating degree days 266 198  
Since 1 July heating degree days 296 340  
Cooling Degree Days 0 0  
Month to date cooling degree days 0 8  
Year to date cooling degree days 949 914  
Growing Degree Days 2 (Base 50)    
Moisture  
Dew Point 38 °F    
Average Humidity 63    
Maximum Humidity 89    
Minimum Humidity 37    
Precipitation  
Precipitation 0.00 in 0.07 in 1.41 in (1968)
Month to date precipitation 1.66 1.29  
Year to date precipitation 23.69 24.51  
Snow  
Snow 0.00 in 0.00 in - ()
Month to date snowfall T 0.2  
Since 1 July snowfall T 0.2  
Since 1 September snowfall T 0.2  
Snow Depth 0.00 in    
Sea Level Pressure  
Sea Level Pressure 29.84 in    
Wind  
Wind Speed 10 mph (SE)    
Max Wind Speed 20 mph    
Max Gust Speed 28 mph    
Visibility 10 miles    
Events      
T = Trace of Precipitation, MM = Missing Value Source: NWS Daily Summary

Daily Weather History Graph

Daily Weather History Graph

Search for Another Location

Airport or City:

Astronomy

Oct. 17, 2019 Rise Set
Actual Time 7:44 AM CDT 6:45 PM CDT
Civil Twilight 7:16 AM CDT 7:13 PM CDT
Nautical Twilight 6:43 AM CDT 7:45 PM CDT
Astronomical Twilight 6:11 AM CDT 8:18 PM CDT
Moon 9:14 PM CDT (10/17) 11:20 AM CDT (10/17)
Length of Visible Light 11h 57m
Length of Day
11h 00m
Waning Gibbous, 86% of the Moon is Illuminated
Oct 17
Waning Gibbous
Oct 21
Last Quarter
Oct 27
New
Nov 4
First Quarter
Nov 12
Full

Hourly Weather History & Observations

Time (CDT) Temp. Windchill Dew Point Humidity Pressure Visibility Wind Dir Wind Speed Gust Speed Precip Events Conditions
12:56 AM 39.9 °F 37.8 °F 33.1 °F 77% 29.98 in 10.0 mi East 3.5 mph - N/A   Clear
1:56 AM 37.9 °F 34.4 °F 32.0 °F 79% 29.97 in 10.0 mi East 4.6 mph - N/A   Clear
2:56 AM 37.9 °F 34.4 °F 33.1 °F 83% 29.96 in 10.0 mi East 4.6 mph - N/A   Clear
3:56 AM 37.0 °F 34.5 °F 32.0 °F 82% 29.94 in 10.0 mi ESE 3.5 mph - N/A   Clear
4:56 AM 36.0 °F 32.1 °F 30.9 °F 82% 29.94 in 10.0 mi ESE 4.6 mph - N/A   Clear
5:56 AM 34.0 °F 29.8 °F 30.9 °F 89% 29.93 in 10.0 mi ESE 4.6 mph - N/A   Clear
6:56 AM 37.9 °F 35.5 °F 33.1 °F 83% 29.92 in 10.0 mi SE 3.5 mph - N/A   Clear
7:56 AM 36.0 °F 32.1 °F 30.9 °F 82% 29.93 in 10.0 mi ESE 4.6 mph - N/A   Clear
8:56 AM 41.0 °F 37.1 °F 36.0 °F 82% 29.92 in 10.0 mi SE 5.8 mph - N/A   Clear
9:56 AM 48.9 °F - 39.0 °F 69% 29.91 in 10.0 mi South 6.9 mph - N/A   Clear
10:56 AM 53.1 °F - 39.9 °F 61% 29.89 in 10.0 mi SE 9.2 mph - N/A   Clear
11:56 AM 59.0 °F - 39.9 °F 49% 29.87 in 10.0 mi SSE 9.2 mph - N/A   Clear
12:56 PM 63.0 °F - 39.9 °F 43% 29.82 in 10.0 mi ESE 12.7 mph - N/A   Clear
1:56 PM 66.9 °F - 39.9 °F 37% 29.80 in 10.0 mi SE 16.1 mph - N/A   Clear
2:56 PM 66.9 °F - 39.9 °F 37% 29.77 in 10.0 mi SE 15.0 mph - N/A   Clear
3:56 PM 69.1 °F - 42.1 °F 38% 29.75 in 10.0 mi SSE 17.3 mph 24.2 mph N/A   Clear
4:56 PM 68.0 °F - 41.0 °F 37% 29.74 in 10.0 mi SSE 17.3 mph 24.2 mph N/A   Clear
5:56 PM 66.0 °F - 42.1 °F 42% 29.74 in 10.0 mi SSE 15.0 mph 21.9 mph N/A   Clear
6:56 PM 61.0 °F - 42.1 °F 50% 29.73 in 10.0 mi SE 10.4 mph - N/A   Clear
7:56 PM 57.9 °F - 42.1 °F 56% 29.73 in 10.0 mi SE 12.7 mph - N/A   Clear
8:56 PM 55.0 °F - 43.0 °F 64% 29.72 in 10.0 mi SE 11.5 mph - N/A   Clear
9:56 PM 55.9 °F - 43.0 °F 62% 29.70 in 10.0 mi SE 13.8 mph - N/A   Clear
10:56 PM 54.0 °F - 43.0 °F 66% 29.70 in 10.0 mi SE 10.4 mph - N/A   Clear
11:56 PM 54.0 °F - 44.1 °F 69% 29.68 in 10.0 mi SE 11.5 mph - N/A   Clear